Hourly Data Report for October 09, 2015

All times are specified in Local Standard Time (LST). Add 1 hour to adjust for Daylight Saving Time where and when it is observed.

OTTAWA INTL A
ONTARIO

45°19'00.000" N
75°40'00.000" W
114.90 m
6106001
71628
YOW

Download Data

Hourly Data (October 2015)
Hourly Data Report for October 9, 2015
Temp Definition
°C
Dew Point Temp Definition
°C
Rel Hum Definition
%
Wind Dir Definition
10's deg

Wind Spd Definition
km/h
Visibility Definition
km
Stn Press Definition
kPa
Hmdx Definition


Wind Chill Definition


Weather Definition


TIME
00:00 Legend Double Dagger 8.2 2.9 69 7 13 24.1 100.23     LegendNANA
01:00 Legend Double Dagger 7.7 3.2 73 5 13 24.1 100.13     Rain
02:00 Legend Double Dagger 6.5 4.3 86 6 16 24.1 100.07     Rain
03:00 Legend Double Dagger 6.0 4.7 91 7 19 16.1 99.92     Rain
04:00 Legend Double Dagger 5.7 4.7 93 6 26 12.9 99.77     Rain
05:00 Legend Double Dagger 5.7 5.0 95 6 25 11.3 99.72     Rain
06:00 Legend Double Dagger 5.2 4.5 95 6 23 12.9 99.64     Rain
07:00 Legend Double Dagger 4.9 4.2 95 6 22 4.8 99.58     Rain,Fog
08:00 Legend Double Dagger 5.1 4.5 96 8 18 4.8 99.51     Rain,Fog
09:00 Legend Double Dagger 5.5 4.9 96 6 13 6.4 99.49     Rain,Fog
10:00 Legend Double Dagger 5.6 5.2 97 6 9 4.8 99.46     Rain,Fog
11:00 Legend Double Dagger 6.1 5.7 97 36 9 3.2 99.47     Rain,Fog
12:00 Legend Double Dagger 6.7 6.1 96 35 15 3.2 99.47     Drizzle,Fog
13:00 Legend Double Dagger 7.4 6.7 95 34 10 16.1 99.49     Drizzle,Fog
14:00 Legend Double Dagger 8.0 6.5 90 32 20 24.1 99.51     LegendNANA
15:00 Legend Double Dagger 8.2 6.3 88 30 19 24.1 99.57     LegendNANA
16:00 Legend Double Dagger 8.7 6.5 86 31 26 24.1 99.68     Cloudy
17:00 Legend Double Dagger 8.6 6.1 84 32 24 24.1 99.81     LegendNANA
18:00 Legend Double Dagger 8.4 6.4 87 29 12 24.1 99.91     LegendNANA
19:00 Legend Double Dagger 8.7 5.8 82 30 15 24.1 99.99     Mostly Cloudy
20:00 Legend Double Dagger 6.9 5.4 90 22 5 24.1 100.10     LegendNANA
21:00 Legend Double Dagger 6.1 5.1 93 26 16 24.1 100.17     LegendNANA
22:00 Legend Double Dagger 7.3 6.1 92 27 19 24.1 100.25     Mostly Cloudy
23:00 Legend Double Dagger 7.1 4.1 81 32 25 24.1 100.36     LegendNANA

Notes on Data Quality.

Legend

  • E = Estimated
  • M = Missing
  • NA = Not Available
  • ‡ = Partner data that is not subject to review by the National Climate Archives
Date modified: